Weather History for Thermal, CA

Change the Weather History Date:

Saturday, October 26, 2013

  Actual Average Record
Temperature  
Mean Temperature 73 °F 69 °F  
Max Temperature 95 °F 87 °F 97 °F (1965)
Min Temperature 51 °F 51 °F 38 °F (1971)
Degree Days  
Heating Degree Days 0 1  
Month to date heating degree days 5 4  
Since 1 July heating degree days 5 4  
Cooling Degree Days 8 5  
Month to date cooling degree days 144 233  
Year to date cooling degree days 4040 3631  
Growing Degree Days 22 (Base 50)    
Moisture  
Dew Point 40 °F    
Average Humidity 39    
Maximum Humidity 68    
Minimum Humidity 9    
Precipitation  
Precipitation 0.00 in 0.00 in 0.00 in (2014)
Month to date precipitation T 0.19  
Year to date precipitation 1.83 2.58  
Since 1 July precipitation 1.39 0.76  
Snow  
Snow 0.00 in - - ()
Month to date snowfall 0.0  
Year to date snowfall 0.0  
Since 1 July snowfall 0.0  
Snow Depth 0.00 in    
Sea Level Pressure  
Sea Level Pressure 29.96 in    
Wind  
Wind Speed 4 mph (North)    
Max Wind Speed 13 mph    
Max Gust Speed 15 mph    
Visibility 10 miles    
Events      
T = Trace of Precipitation, MM = Missing Value Source: NWS Daily Summary

Daily Weather History Graph

Daily Weather History Graph

Search for Another Location

Airport:

Trip Planner

Search our weather history database for the weather conditions in past years. The results will help you decide how hot, cold, wet, or windy it might be!

Date:

Astronomy

Oct. 26, 2013 Rise Set
Actual Time 6:58 AM PDT 5:57 PM PDT
Civil Twilight 6:33 AM PDT 6:23 PM PDT
Nautical Twilight 6:03 AM PDT 6:52 PM PDT
Astronomical Twilight 5:34 AM PDT 7:21 PM PDT
Moon No Moon Rise 1:15 PM PDT
Length of Visible Light 11h 50m
Length of Day
10h 59m
Waning Gibbous, 52% of the Moon is Illuminated
Oct 26
Waning Gibbous
Oct 26
Last Quarter
Nov 3
New
Nov 9
First Quarter
Nov 17
Full

Hourly Weather History & Observations

Time (PDT) Temp. Dew Point Humidity Pressure Visibility Wind Dir Wind Speed Gust Speed Precip Events Conditions
12:52 AM 59.0 °F 44.1 °F 58% 29.97 in 10.0 mi NNW 5.8 mph - N/A   Clear
1:52 AM 62.1 °F 41.0 °F 46% 29.98 in 10.0 mi North 4.6 mph - N/A   Clear
2:52 AM 64.0 °F 35.1 °F 34% 29.98 in 10.0 mi North 5.8 mph - N/A   Clear
3:52 AM 54.0 °F 39.0 °F 57% 29.97 in 10.0 mi Calm Calm - N/A   Clear
4:52 AM 52.0 °F 41.0 °F 66% 29.97 in 10.0 mi Calm Calm - N/A   Clear
5:52 AM 53.1 °F 41.0 °F 64% 29.98 in 10.0 mi WNW 5.8 mph - N/A   Clear
6:52 AM 54.0 °F 37.9 °F 55% 29.99 in 10.0 mi Calm Calm - N/A   Clear
7:52 AM 57.9 °F 37.9 °F 47% 30.01 in 10.0 mi NW 3.5 mph - N/A   Clear
8:52 AM 71.1 °F 36.0 °F 28% 30.02 in 10.0 mi NNW 5.8 mph - N/A   Clear
9:52 AM 80.1 °F 36.0 °F 20% 30.02 in 10.0 mi NNW 5.8 mph - N/A   Clear
10:52 AM 86.0 °F 37.9 °F 18% 30.01 in 10.0 mi Calm Calm - N/A   Clear
11:52 AM 91.0 °F 33.1 °F 13% 30.00 in 10.0 mi Calm Calm - N/A   Clear
12:52 PM 93.0 °F 26.1 °F 9% 29.97 in 10.0 mi Calm Calm - N/A   Clear
1:52 PM 93.0 °F 39.9 °F 16% 29.97 in 10.0 mi SE 10.4 mph - N/A   Clear
2:52 PM 90.0 °F 37.9 °F 16% 29.93 in 10.0 mi SE 10.4 mph - N/A   Clear
3:52 PM 88.0 °F 39.0 °F 18% 29.92 in 10.0 mi SE 8.1 mph - N/A   Clear
4:52 PM 86.0 °F 43.0 °F 22% 29.91 in 10.0 mi SE 5.8 mph - N/A   Clear
5:52 PM 78.1 °F 46.9 °F 33% 29.91 in 10.0 mi South 5.8 mph - N/A   Clear
6:52 PM 70.0 °F 45.0 °F 41% 29.91 in 10.0 mi Calm Calm - N/A   Clear
7:52 PM 70.0 °F 46.0 °F 42% 29.92 in 10.0 mi Calm Calm - N/A   Clear
8:52 PM 66.0 °F 46.0 °F 48% 29.92 in 10.0 mi Calm Calm - N/A   Clear
9:52 PM 68.0 °F 44.1 °F 42% 29.93 in 10.0 mi North 4.6 mph - N/A   Clear
10:52 PM 66.9 °F 43.0 °F 42% 29.92 in 10.0 mi North 3.5 mph - N/A   Clear
11:52 PM 60.1 °F 45.0 °F 57% 29.91 in 10.0 mi Calm Calm - N/A   Clear